CAPE
1511 1596 1446 1370 1316 1356 1336 1355 1469 1782 1891 1652 1492 1710 1523 1455 1526 1412 1247 1004 663 854 921 760 436 442 437 251 94 42 0 0 0
1523 1662 1529 1474 1456 1471 1430 1490 1473 1896 2060 1967 1936 1765 1864 1771 1437 1704 1586 1316 732 768 711 546 412 412 179 47 43 28 0 0 0
801 1582 1509 1434 1484 1569 1507 1490 1557 1617 1946 2160 2197 2222 2187 2196 2219 1869 1780 1455 1115 1092 808 567 408 250 292 166 54 12 0 0 0
0 33 866 998 1151 1417 1297 1505 1566 1612 1986 2162 2324 2380 2365 2485 2576 2543 2162 1798 1561 1320 993 810 551 382 275 255 110 86 60 27 27
49 0 91 524 641 832 1244 1428 1672 1886 2292 2424 2604 2639 2760 2707 2636 2457 2245 1857 1815 1563 1317 1092 827 656 581 433 323 180 138 132 269
0 12 0 283 420 1007 1077 1424 1671 2189 2532 2711 2775 2386 2482 2231 2440 2343 2216 2036 1769 1556 1496 1418 1257 1034 795 585 464 506 447 440 477
16 12 26 237 549 757 869 1140 1271 1693 2038 2143 2019 1903 1896 2002 1999 2051 1921 1862 1664 1556 1577 1537 1325 1142 1001 904 854 807 801 819 780
0 16 33 402 668 863 1097 1214 1291 1381 1491 1641 1760 1766 1832 1981 1895 1775 1650 1647 1719 1626 1499 1460 1335 1240 1113 1028 1118 1175 1041 993 965
7 114 121 554 838 1184 1674 1645 1602 1555 1468 1592 1703 1655 1729 1983 1758 1643 1591 1520 1483 1420 1373 1241 1153 1224 1306 1297 1393 1569 1446 1237 1093
754 278 296 630 1033 1497 1907 1976 1828 1736 1721 1889 1853 1666 1618 1840 1584 1542 1456 1462 1411 1274 1252 1173 1247 1328 1382 1298 1267 1517 1521 1091 952
755 1312 1128 1266 1505 1654 2137 2138 2139 2036 2138 2154 2395 1861 1989 1915 1654 1552 1564 1509 1483 1361 1271 1385 1423 1468 1394 1439 1443 1542 1392 500 792
170 1111 936 581 1762 2150 2703 2516 2489 2818 2616 2322 2565 2180 2487 2274 1857 2025 1897 1612 1496 1575 1771 1694 1698 1738 1730 1635 1548 1496 1231 384 570
1206 714 650 1972 2263 2524 2843 2800 2853 3182 2816 2504 2551 2362 2210 2313 1933 1810 2000 2092 1908 1873 1955 2032 1878 1715 1643 1556 1336 860 170 84 463
1623 1442 1951 2455 2602 2616 2843 3057 3264 3200 2955 2725 2521 2386 2246 2248 2182 1919 1876 1944 1940 2053 2055 1860 1560 1359 1052 943 791 517 243 0 76
1753 2087 2325 1994 2113 2376 2654 3320 3365 3076 3034 2801 2948 2662 2472 2319 2352 2277 2105 2110 1606 1566 1381 1166 961 820 797 789 612 527 301 324 0
1808 2195 1867 1373 1383 1439 1560 1784 1912 2010 2009 2173 2982 2768 2637 2458 2260 2259 2023 1641 1231 751 505 666 578 603 602 500 484 299 288 151 0
1448 1778 1476 1419 1640 1563 1364 1259 1390 1572 1571 1759 2086 2012 1869 1558 1167 674 560 690 528 424 284 242 75 75 197 162 60 15 19 1 1
764 1741 1804 1721 1543 1356 1075 1024 1006 762 931 1238 1385 1330 1305 721 354 354 165 68 94 39 0 0 0 0 0 0 1 0 24 76 100
11 1172 1403 1443 1205 1219 1135 920 680 550 459 492 597 588 413 706 396 6 0 0 16 1 0 1 1 1 0 0 1 1 1 2 2
0 761 912 1055 1391 1280 894 681 523 405 342 202 198 272 257 334 187 299 132 96 20 63 1 1 1 0 1 1 0 1 1 2 1
CIN
-143 -157 -190 -230 -244 -271 -281 -304 -307 -296 -338 -313 -295 -225 -220 -216 -191 -167 -140 -167 -196 -129 -120 -145 -187 -159 -137 -152 -153 -128 -0 -0 -0
-144 -135 -178 -221 -229 -230 -262 -295 -317 -334 -334 -316 -304 -264 -207 -188 -187 -135 -135 -142 -209 -172 -184 -210 -192 -154 -196 -242 -201 -162 -51 -0 -0
-135 -122 -162 -214 -233 -225 -247 -246 -317 -328 -318 -327 -324 -246 -203 -163 -132 -128 -113 -121 -152 -122 -179 -205 -195 -208 -188 -176 -228 -212 -0 -0 -0
-0 -168 -169 -213 -215 -205 -263 -227 -308 -316 -364 -331 -298 -238 -197 -129 -97 -76 -85 -98 -115 -139 -188 -189 -210 -222 -222 -177 -209 -165 -130 -119 -70
-212 -0 -281 -220 -226 -315 -322 -327 -345 -348 -350 -324 -286 -230 -176 -134 -100 -88 -92 -126 -116 -142 -146 -168 -185 -173 -146 -132 -117 -140 -113 -86 -36
-0 -193 -0 -282 -362 -312 -353 -356 -367 -384 -367 -318 -276 -284 -230 -232 -158 -134 -128 -138 -159 -179 -164 -140 -124 -113 -111 -106 -105 -73 -70 -58 -45
-34 -83 -62 -377 -379 -402 -425 -441 -459 -476 -456 -391 -379 -353 -320 -280 -254 -220 -202 -189 -205 -188 -164 -138 -138 -126 -107 -87 -73 -51 -31 -22 -23
-0 -143 -72 -351 -400 -443 -439 -483 -516 -482 -505 -476 -426 -392 -350 -310 -325 -285 -267 -225 -191 -183 -191 -172 -168 -136 -111 -93 -66 -49 -48 -25 -16
-323 -226 -244 -336 -370 -417 -410 -443 -501 -472 -493 -475 -452 -428 -386 -343 -345 -323 -290 -272 -259 -241 -210 -195 -195 -159 -128 -103 -47 -23 -28 -34 -35
-228 -162 -135 -287 -363 -405 -448 -419 -448 -452 -450 -437 -403 -404 -422 -353 -365 -332 -331 -302 -283 -261 -220 -205 -145 -97 -65 -69 -87 -42 -24 -60 -72
-124 -99 -254 -254 -394 -398 -451 -474 -409 -431 -390 -356 -300 -353 -320 -328 -325 -319 -312 -288 -253 -234 -224 -169 -131 -87 -75 -56 -52 -45 -38 -185 -123
-132 -172 -206 -279 -367 -427 -453 -386 -391 -301 -278 -304 -251 -286 -214 -242 -281 -221 -232 -264 -258 -204 -146 -145 -122 -108 -88 -69 -63 -64 -72 -223 -179
-328 -364 -412 -305 -324 -344 -363 -363 -300 -224 -234 -253 -221 -230 -228 -206 -233 -235 -200 -153 -175 -171 -121 -87 -128 -130 -154 -230 -215 -211 -372 -337 -174
-349 -390 -388 -431 -444 -442 -381 -302 -228 -196 -212 -180 -192 -208 -205 -203 -190 -208 -189 -144 -132 -100 -71 -85 -92 -114 -207 -247 -253 -334 -314 -0 -146
-372 -396 -386 -463 -495 -487 -443 -274 -220 -212 -172 -205 -124 -150 -175 -176 -145 -132 -133 -84 -143 -135 -128 -133 -139 -167 -165 -210 -205 -171 -261 -206 -0
-361 -316 -424 -524 -550 -565 -533 -483 -410 -321 -300 -272 -151 -144 -125 -119 -115 -80 -98 -116 -155 -244 -266 -179 -193 -167 -180 -175 -115 -174 -200 -259 -0
-341 -393 -485 -476 -444 -443 -452 -465 -420 -351 -323 -278 -226 -209 -203 -234 -269 -361 -346 -277 -305 -312 -353 -295 -277 -197 -178 -160 -133 -150 -187 -0 -0
-195 -385 -352 -375 -461 -459 -455 -423 -415 -479 -398 -304 -253 -235 -211 -323 -463 -422 -529 -309 -263 -295 -0 -0 -0 -0 -0 -0 -0 -0 -147 -167 -168
-72 -403 -420 -439 -490 -456 -426 -437 -484 -479 -480 -454 -367 -313 -348 -229 -323 -529 -0 -0 -358 -0 -0 -0 -0 -0 -0 -0 -0 -0 -0 -0 -0
-0 -168 -422 -448 -334 -363 -418 -439 -462 -468 -454 -505 -496 -416 -362 -279 -360 -249 -335 -338 -409 -336 -0 -0 -0 -0 -0 -0 -0 -0 -0 -0 -0
Wind_Speed
15 19 18 19 20 18 18 20 18 18 18 16 17 16 16 12 11 9 9 7 5 7 7 9 8 10 8 7 7 6 5 4 4
15 20 20 21 19 18 17 16 19 19 17 16 16 17 13 12 11 9 8 8 8 6 8 7 9 10 9 7 7 7 6 4 5
9 16 18 17 16 17 15 17 16 15 15 18 16 15 12 10 10 10 8 6 8 8 8 8 9 8 8 8 8 8 7 6 7
10 16 18 16 15 15 15 14 12 14 13 13 13 13 11 11 10 10 9 9 9 9 7 8 9 9 10 9 9 8 8 7 7
8 8 17 15 13 10 11 12 12 13 12 13 13 13 12 11 10 9 9 9 8 7 8 7 9 9 8 9 9 8 9 9 8
6 8 6 13 9 12 12 12 11 12 12 12 12 11 11 9 9 8 8 8 7 7 6 6 7 7 8 8 8 9 9 9 9
11 12 6 10 11 11 10 11 11 10 10 11 11 11 9 9 9 9 7 6 7 7 6 6 5 6 7 7 6 6 6 7 7
13 7 17 12 11 10 8 8 8 8 10 10 11 10 9 9 8 6 6 6 6 6 6 6 7 6 5 6 5 5 6 6 6
12 10 12 12 12 14 12 13 12 11 10 9 10 9 10 7 7 7 7 6 6 6 6 5 5 5 6 6 5 8 10 7 5
8 5 10 9 13 13 12 12 12 13 11 7 8 8 7 7 7 8 7 7 7 7 7 6 6 6 5 5 6 9 10 11 6
11 7 3 7 6 5 7 8 8 8 8 9 8 8 7 7 8 8 7 7 7 6 5 7 6 6 7 6 5 9 10 8 6
12 12 10 6 7 7 7 11 9 10 7 7 7 8 8 8 9 8 8 9 8 6 7 7 7 7 9 7 6 10 11 7 6
6 5 6 8 5 8 10 8 11 11 8 8 8 8 9 8 9 10 9 8 9 7 6 8 6 6 6 12 8 7 6 6 4
7 9 7 9 9 8 7 10 11 9 8 10 13 12 10 9 9 9 8 7 5 6 7 5 5 5 5 6 5 8 11 0 4
14 13 9 9 11 10 9 8 9 8 5 3 3 4 5 6 8 6 6 7 3 3 5 6 5 4 4 2 5 10 12 14 11
17 14 11 8 11 12 10 9 9 9 2 2 6 7 6 6 6 5 5 6 5 3 4 5 5 5 4 3 3 4 10 12 10
6 13 13 11 13 12 10 7 8 6 5 4 7 7 6 5 6 5 5 4 5 5 5 4 3 3 3 3 3 3 4 3 5
15 11 9 9 12 11 8 7 7 6 6 6 6 6 5 5 3 4 4 3 1 2 2 3 4 3 3 3 4 4 5 6 4
24 4 9 10 10 12 9 8 7 6 6 7 7 6 4 3 3 3 3 4 2 2 2 2 3 6 3 3 5 7 4 6 7
25 10 7 9 10 10 8 7 7 5 6 7 6 6 4 4 3 3 3 2 3 2 3 6 5 4 4 3 2 5 5 8 8
Wind_Direction
188 188 190 197 195 190 194 197 192 188 191 193 193 193 197 193 185 195 199 182 169 191 193 195 187 194 189 188 184 201 174 185 207
188 199 195 201 199 197 198 195 196 193 190 196 195 197 195 196 193 189 191 185 185 190 196 190 189 188 185 188 185 185 189 211 227
202 203 218 198 201 191 197 203 196 190 192 193 191 189 192 192 188 190 192 168 184 195 195 184 180 184 182 195 202 202 196 221 231
234 207 214 198 197 193 191 193 182 185 183 183 181 185 187 181 188 194 194 191 202 198 186 181 175 181 194 199 199 196 197 212 220
84 181 194 193 189 172 170 178 174 174 177 177 178 180 181 185 183 190 187 187 190 181 186 178 179 184 187 191 198 189 199 210 218
55 75 229 183 161 177 170 174 170 170 170 173 172 171 178 177 184 181 191 180 180 173 175 175 173 171 178 191 197 198 204 209 212
139 233 107 210 167 173 167 166 168 161 160 166 169 169 169 175 182 182 180 170 170 169 175 177 180 178 184 193 198 204 209 214 223
180 142 289 230 164 164 162 151 159 163 158 163 166 166 166 180 174 163 158 161 158 169 165 181 175 175 196 207 203 206 201 212 221
206 209 185 210 173 165 170 172 168 164 162 157 157 163 174 164 152 155 163 169 167 169 171 176 174 190 192 199 219 221 212 200 200
89 136 221 189 179 178 162 173 167 167 164 143 151 159 151 158 154 162 172 172 169 176 175 171 187 199 204 223 221 218 215 210 198
125 117 337 193 169 185 158 137 143 134 147 151 149 155 155 157 158 170 168 172 182 173 170 183 183 188 197 200 220 231 232 220 207
158 150 167 189 184 159 144 151 145 140 142 150 152 158 162 164 160 165 174 180 182 177 174 182 185 179 187 197 220 220 232 193 195
113 125 118 125 156 143 146 146 144 145 160 162 173 173 176 161 167 178 178 178 187 189 185 207 203 200 206 172 180 194 239 214 185
100 105 98 90 88 107 141 142 147 152 152 180 195 184 177 170 181 186 182 180 179 190 192 175 196 233 195 166 160 141 151 302 292
122 119 106 92 89 79 76 100 114 111 109 303 174 152 174 159 178 186 173 177 148 151 158 178 196 215 237 162 139 156 159 164 214
135 140 116 92 93 83 65 70 93 98 72 11 168 147 162 167 141 145 150 153 171 175 191 197 208 208 202 184 145 165 189 158 198
142 131 118 127 114 104 97 90 84 93 82 65 85 100 109 116 134 146 156 166 172 184 184 207 222 210 196 184 199 177 164 191 197
287 117 122 127 114 111 108 98 89 89 84 75 77 80 97 105 122 145 134 100 153 128 87 164 164 208 198 198 212 232 201 197 200
315 135 137 127 120 123 124 117 107 96 99 99 97 84 87 132 139 144 144 151 167 247 287 295 331 13 45 210 122 99 17 318 290
302 293 82 101 115 110 111 108 108 116 105 101 103 111 93 94 103 154 154 181 185 188 42 79 58 53 88 109 236 311 280 255 240